When you browse on this site, cookies collect data to enhance your experience and personalize the content and advertising you see.
Visit our Privacy Policy to learn more. By continuing to use the site, you agree to this use of cookies and data.
  • In Latvia
  • List of Countries
  • For 7 days
  • Water Temperature
  • Weather Map
  • Weather Widgets
  • user-avatar
    Login

    Hourly Weather Luanda

    Today, 20 November, Wednesday

    Time Temperature Precipitation Wind Pressure Humidity
    00:00 +27°C° 0 mm 4 mps 752 mmHg 85%
    01:00 +27°C° 0 mm 3 mps 752 mmHg 86%
    02:00 +27°C° 0 mm 4 mps 752 mmHg 84%
    03:00 +27°C° 0 mm 4 mps 751 mmHg 82%
    04:00 +27°C° 0 mm 4 mps 751 mmHg 80%
    05:00 +27°C° 0 mm 4 mps 752 mmHg 78%
    06:00 +27°C° 0 mm 4 mps 752 mmHg 77%
    07:00 +28°C° 0 mm 3 mps 753 mmHg 75%
    08:00 +29°C° 0 mm 3 mps 753 mmHg 70%
    09:00 +30°C° 0 mm 2 mps 753 mmHg 65%
    10:00 +31°C° 0 mm 2 mps 753 mmHg 59%
    11:00 +33°C° 0 mm 3 mps 752 mmHg 55%
    12:00 +34°C° 0 mm 4 mps 752 mmHg 50%
    13:00 +35°C° 0 mm 5 mps 751 mmHg 45%
    14:00 +34°C° 0 mm 6 mps 750 mmHg 49%
    15:00 +33°C° 0 mm 7 mps 750 mmHg 52%
    16:00 +32°C° 0 mm 7 mps 749 mmHg 56%
    17:00 +30°C° 0 mm 7 mps 750 mmHg 61%
    18:00 +29°C° 0 mm 6 mps 751 mmHg 67%
    19:00 +28°C° 0 mm 6 mps 751 mmHg 72%
    20:00 +27°C° 0 mm 5 mps 752 mmHg 74%
    21:00 +27°C° 0 mm 5 mps 752 mmHg 76%
    22:00 +27°C° 0 mm 4 mps 752 mmHg 77%
    23:00 +27°C° 0 mm 4 mps 752 mmHg 79%

    Tomorrow, 21 November, Thursday

    Time Temperature Precipitation Wind Pressure Humidity
    00:00 +27°C° 0 mm 4 mps 752 mmHg 80%
    01:00 +26°C° 0 mm 4 mps 752 mmHg 81%
    02:00 +26°C° 0 mm 3 mps 752 mmHg 80%
    03:00 +26°C° 0 mm 3 mps 752 mmHg 80%
    04:00 +26°C° 0 mm 3 mps 752 mmHg 79%
    05:00 +27°C° 0 mm 2 mps 753 mmHg 77%
    06:00 +27°C° 0 mm 2 mps 753 mmHg 75%
    07:00 +27°C° 0 mm 1 mps 754 mmHg 72%
    08:00 +28°C° 0 mm 1 mps 754 mmHg 66%
    09:00 +29°C° 0 mm 1 mps 754 mmHg 60%
    10:00 +31°C° 0 mm 1 mps 754 mmHg 54%
    11:00 +31°C° 0 mm 2 mps 753 mmHg 51%
    12:00 +33°C° 0 mm 3 mps 753 mmHg 48%
    13:00 +34°C° 0 mm 3 mps 753 mmHg 45%
    14:00 +33°C° 0 mm 4 mps 752 mmHg 49%
    15:00 +32°C° 0 mm 5 mps 752 mmHg 53%
    16:00 +30°C° 0 mm 6 mps 751 mmHg 57%
    17:00 +30°C° 0 mm 5 mps 752 mmHg 60%
    18:00 +29°C° 0 mm 5 mps 752 mmHg 63%
    19:00 +28°C° 0 mm 5 mps 753 mmHg 66%
    20:00 +28°C° 0 mm 5 mps 753 mmHg 68%
    21:00 +28°C° 0 mm 4 mps 753 mmHg 70%
    22:00 +27°C° 0 mm 4 mps 753 mmHg 71%
    23:00 +27°C° 0 mm 4 mps 753 mmHg 73%

    Day after tomorrow, 22 November, Friday

    Time Temperature Precipitation Wind Pressure Humidity
    00:00 +27°C° 0 mm 3 mps 753 mmHg 74%
    01:00 +27°C° 0 mm 3 mps 753 mmHg 76%
    02:00 +27°C° 0.1 mm 3 mps 753 mmHg 77%
    03:00 +27°C° 0.1 mm 2 mps 753 mmHg 78%
    04:00 +26°C° 0.1 mm 2 mps 752 mmHg 79%
    05:00 +27°C° 0.1 mm 1 mps 753 mmHg 79%
    06:00 +27°C° 0.1 mm 1 mps 753 mmHg 78%
    07:00 +27°C° 0.1 mm 1 mps 754 mmHg 77%
    08:00 +28°C° 0.4 mm 2 mps 754 mmHg 75%
    09:00 +28°C° 0.4 mm 2 mps 754 mmHg 73%
    10:00 +29°C° 0.4 mm 2 mps 754 mmHg 71%
    11:00 +29°C° 0.3 mm 3 mps 754 mmHg 70%
    12:00 +29°C° 0.3 mm 3 mps 753 mmHg 70%
    13:00 +30°C° 0.3 mm 4 mps 753 mmHg 69%
    14:00 +29°C° 0.3 mm 4 mps 752 mmHg 71%
    15:00 +29°C° 0.3 mm 5 mps 752 mmHg 72%
    16:00 +29°C° 0.3 mm 5 mps 752 mmHg 73%
    17:00 +28°C° 0.2 mm 5 mps 752 mmHg 76%
    18:00 +28°C° 0.2 mm 6 mps 753 mmHg 78%
    19:00 +27°C° 0.2 mm 6 mps 753 mmHg 80%
    20:00 +27°C° 0 mm 5 mps 753 mmHg 81%
    21:00 +27°C° 0 mm 5 mps 754 mmHg 82%
    22:00 +26°C° 0 mm 4 mps 754 mmHg 83%
    23:00 +26°C° 0 mm 4 mps 754 mmHg 83%

    23 November, Saturday

    Time Temperature Precipitation Wind Pressure Humidity
    00:00 +26°C° 0 mm 4 mps 754 mmHg 84%
    01:00 +26°C° 0 mm 3 mps 754 mmHg 84%
    02:00 +26°C° 0 mm 3 mps 753 mmHg 84%
    03:00 +26°C° 0 mm 3 mps 753 mmHg 83%
    04:00 +26°C° 0 mm 3 mps 753 mmHg 83%
    05:00 +26°C° 0 mm 3 mps 753 mmHg 81%
    06:00 +26°C° 0 mm 3 mps 753 mmHg 78%
    07:00 +27°C° 0 mm 3 mps 754 mmHg 76%
    08:00 +27°C° 0 mm 3 mps 754 mmHg 74%
    09:00 +27°C° 0 mm 3 mps 754 mmHg 72%
    10:00 +28°C° 0 mm 2 mps 754 mmHg 70%
    11:00 +29°C° 0 mm 3 mps 753 mmHg 65%
    12:00 +30°C° 0 mm 3 mps 753 mmHg 60%
    13:00 +31°C° 0 mm 3 mps 752 mmHg 55%
    14:00 +32°C° 0 mm 4 mps 752 mmHg 56%
    15:00 +32°C° 0 mm 4 mps 752 mmHg 57%
    16:00 +32°C° 0 mm 5 mps 751 mmHg 58%
    17:00 +30°C° 0 mm 4 mps 752 mmHg 62%
    18:00 +29°C° 0 mm 4 mps 752 mmHg 67%
    19:00 +28°C° 0 mm 3 mps 752 mmHg 72%
    20:00 +27°C° 0 mm 3 mps 753 mmHg 73%
    21:00 +27°C° 0 mm 3 mps 753 mmHg 74%
    22:00 +27°C° 0 mm 3 mps 753 mmHg 74%
    23:00 +27°C° 0 mm 4 mps 753 mmHg 76%

    24 November, Sunday

    Time Temperature Precipitation Wind Pressure Humidity
    00:00 +27°C° 0 mm 4 mps 752 mmHg 78%
    01:00 +26°C° 0 mm 4 mps 752 mmHg 80%
    02:00 +26°C° 0 mm 4 mps 752 mmHg 80%
    03:00 +26°C° 0 mm 3 mps 752 mmHg 79%
    04:00 +26°C° 0 mm 3 mps 751 mmHg 79%
    05:00 +26°C° 0 mm 3 mps 752 mmHg 78%
    06:00 +27°C° 0 mm 3 mps 752 mmHg 77%
    07:00 +27°C° 0 mm 3 mps 753 mmHg 76%
    08:00 +28°C° 0 mm 3 mps 753 mmHg 71%
    09:00 +29°C° 0 mm 3 mps 753 mmHg 66%
    10:00 +30°C° 0 mm 2 mps 754 mmHg 61%
    11:00 +31°C° 0 mm 3 mps 753 mmHg 59%
    12:00 +33°C° 0 mm 3 mps 752 mmHg 56%
    13:00 +34°C° 0 mm 3 mps 751 mmHg 54%
    14:00 +33°C° 0 mm 3 mps 751 mmHg 56%
    15:00 +33°C° 0 mm 3 mps 750 mmHg 58%
    16:00 +31°C° 0 mm 3 mps 750 mmHg 61%
    17:00 +30°C° 0 mm 3 mps 751 mmHg 65%
    18:00 +29°C° 0 mm 3 mps 751 mmHg 69%
    19:00 +28°C° 0 mm 3 mps 752 mmHg 74%
    20:00 +28°C° 0 mm 3 mps 752 mmHg 75%
    21:00 +28°C° 0 mm 3 mps 753 mmHg 76%
    22:00 +28°C° 0 mm 3 mps 753 mmHg 77%
    23:00 +28°C° 0 mm 3 mps 753 mmHg 77%

    25 November, Monday

    Time Temperature Precipitation Wind Pressure Humidity
    00:00 +27°C° 0 mm 3 mps 752 mmHg 77%
    01:00 +27°C° 0 mm 4 mps 752 mmHg 78%
    02:00 +27°C° 0 mm 4 mps 752 mmHg 78%
    03:00 +27°C° 0 mm 4 mps 752 mmHg 78%
    04:00 +27°C° 0 mm 4 mps 752 mmHg 78%
    05:00 +27°C° 0 mm 4 mps 752 mmHg 77%
    06:00 +27°C° 0 mm 4 mps 753 mmHg 76%
    07:00 +27°C° 0 mm 3 mps 753 mmHg 75%
    08:00 +28°C° 0 mm 3 mps 753 mmHg 71%
    09:00 +29°C° 0 mm 2 mps 753 mmHg 67%
    10:00 +30°C° 0 mm 2 mps 753 mmHg 63%
    11:00 +31°C° 0 mm 2 mps 753 mmHg 60%
    12:00 +32°C° 0 mm 2 mps 752 mmHg 58%
    13:00 +34°C° 0 mm 2 mps 751 mmHg 56%
    14:00 +34°C° 0.1 mm 3 mps 751 mmHg 57%
    15:00 +33°C° 0.1 mm 3 mps 750 mmHg 58%
    16:00 +33°C° 0.1 mm 4 mps 750 mmHg 59%
    17:00 +32°C° 0 mm 4 mps 750 mmHg 64%
    18:00 +30°C° 0 mm 4 mps 751 mmHg 69%
    19:00 +28°C° 0 mm 4 mps 751 mmHg 74%
    20:00 +28°C° 0 mm 4 mps 752 mmHg 74%
    21:00 +28°C° 0 mm 4 mps 752 mmHg 74%
    22:00 +28°C° 0 mm 3 mps 753 mmHg 74%
    23:00 +28°C° 0 mm 3 mps 753 mmHg 75%
    Show more